Location: Newark
(50.4348°N, 30.5552°E)
Time: 22:45:14
(UTC+00:00)

Envisat - Pass Details

Date: 12 December 2019
Orbit: 764 x 766 km, 98.1° (Epoch: 21 January)

Event Time Altitude Azimuth Distance (km) Brightness Sun altitude
Rises 03:24:10 0° 28° (NNE) 3,246 6.5 -21.8°
Reaches altitude 10° 03:27:30 10° 51° (NE) 2,313 6.0 -21.2°
Maximum altitude 03:30:25 15° 86° (E) 1,968 6.1 -20.8°
Drops below altitude 10° 03:33:19 10° 122° (ESE) 2,302 6.5 -20.3°
Sets 03:36:37 0° 145° (SE) 3,221 7.0 -19.8°
